www.pogodaiklimat.ru

Погода и климат >> Архив погоды >> Австралия >> Западная Австралия >> Евкла


ПОГОДА в Евкле

  • Прогноз погоды в Евкле
  • Монитор погоды в Евкле

АРХИВ ПОГОДЫ в Евкле

Время (UTC), дата Ветер
(напр.,м/с)
 
Видим.   Явления Облачность Т
(С)
Тd
(С)
f
(%)
Тe
(С)
Тes
(С)
Комфортность P
(гПа)
Po
(гПа)
Тmin
(С)
Tmax
(С)
R
(мм)
R24
(мм)
S
(см)
04 10.07 З 6 н/о н/о +19.5 +5.9 41 +20 +20 1019.0 1007.7
06 10.07 ЮЗ 7 н/о н/о +17.3 +8.4 56 +16 +16 1019.5 1008.2
07 10.07 ЮЗ 6 5000 м мгла 1/1 50 м
[St]
+17.0 +8.9 59 +16 +17 1019.8 1008.5
09 10.07 ЮЗ 4 н/о н/о +14.9 +9.3 69 +14 +14 1021.3 1010.0
10 10.07 З 4 н/о н/о +14.5 +8.5 67 +13 +13 1022.1 1010.8
12 10.07 З 5 н/о н/о +14.4 +8.6 68 +13 +13 1023.2 1011.9
13 10.07 З 4 н/о н/о +13.2 +8.7 74 +12 +12 1023.1 1011.8 +20.1
15 10.07 З 4 н/о н/о +13.0 +8.7 75 +11 +11 1023.1 1011.8
16 10.07 З 3 н/о н/о +12.8 +8.9 77 +11 +11 1022.8 1011.5
18 10.07 З 4 н/о н/о +9.6 +7.2 85 +7 +7 1023.2 1011.9
19 10.07 З 4 н/о н/о +9.7 +7.6 87 +7 +7 1023.1 1011.8
21 10.07 З 4 н/о н/о +8.9 +7.2 89 +6 +6 1023.7 1012.4
22 10.07 СЗ 5 н/о н/о +9.6 +8.0 90 +6 +6 1024.5 1013.2
00 11.07 З 4 н/о н/о +12.5 +8.8 78 +11 +11 1025.8 1014.4
01 11.07 З 4 20 км мгла 1/1 2000 м
[Sc diur, vesp]
+15.2 +9.6 69 +14 +17 1026.0 1014.6 +8.8
03 11.07 З 5 н/о н/о +18.9 +8.8 52 +19 +19 1025.2 1013.9
04 11.07 З 4 н/о н/о +19.5 +8.8 50 +20 +20 1024.0 1012.7
06 11.07 ЮЗ 5 н/о н/о +18.3 +9.6 57 +18 +18 1023.4 1012.1
07 11.07 ЮЗ 5 20 км мгла 3/3 600 м
[Sc diur, vesp]
+16.6 +10.5 67 +16 +17 1023.9 1012.6
09 11.07 ЮЗ 4 н/о н/о +14.0 +9.6 75 +13 +13 1024.8 1013.5
10 11.07 З 3 н/о н/о +13.1 +9.4 78 +12 +12 1025.5 1014.1
12 11.07 З 4 н/о н/о +13.1 +8.8 75 +12 +12 1026.1 1014.7
13 11.07 З 4 н/о н/о +12.3 +9.1 81 +10 +10 1025.5 1014.1 +20.8
15 11.07 З 4 н/о н/о +12.7 +10.8 88 +11 +11 1025.2 1013.9
16 11.07 СЗ 3 н/о н/о +12.5 +10.6 88 +11 +11 1024.8 1013.5
18 11.07 З 4 н/о н/о +10.9 +9.2 89 +9 +9 1024.7 1013.4
19 11.07 З 4 н/о н/о +10.8 +9.4 91 +8 +8 1024.6 1013.3
21 11.07 СЗ 3 н/о н/о +9.1 +7.5 90 +7 +7 1024.7 1013.4
22 11.07 СЗ 4 н/о н/о +7.9 +6.7 92 +5 +5 1025.6 1014.2
00 12.07 З 4 н/о н/о +12.4 +10.1 86 +10 +10 1026.2 1014.8
01 12.07 З 6 15 км мгла 4/3 100 м
[Sc diur, vesp Ci]
+14.5 +9.7 73 +13 +14 1026.7 1015.3 +7.8
03 12.07 ЮЗ 7 н/о н/о +16.7 +10.3 66 +16 +16 1026.9 1015.5
04 12.07 ЮЗ 7 н/о н/о +15.4 +10.2 71 +14 +14 1026.5 1015.1
06 12.07 ЮЗ 6 н/о н/о +15.6 +8.8 64 +14 +14 1026.4 1015.0
07 12.07 ЮЗ 7 5000 м мгла 6/6 100 м
[Sc diur, vesp Ci]
+14.6 +6.4 58 +13 +13 1026.8 1015.4
09 12.07 ЮЗ 6 н/о н/о +13.7 +7.2 65 +12 +12 1027.9 1016.5
10 12.07 ЮЗ 5 н/о н/о +13.5 +7.5 67 +12 +12 1028.7 1017.3
12 12.07 Ю 6 н/о н/о +13.3 +7.5 68 +11 +11 1030.0 1018.6
13 12.07 Ю 6 н/о н/о +13.2 +6.5 64 +11 +11 1030.4 1019.0 +17.0
15 12.07 Ю 4 н/о н/о +12.6 +4.8 59 +11 +11 1030.4 1019.0
16 12.07 Ю 6 н/о н/о +12.9 +6.3 64 +11 +11 1030.2 1018.8
18 12.07 Ю 5 н/о н/о +12.8 +5.5 61 +11 +11 1030.8 1019.4
19 12.07 Ю 5 н/о н/о +12.7 +4.9 59 +11 +11 1031.2 1019.8
21 12.07 Ю 5 н/о н/о +12.4 +5.1 61 +10 +10 1031.9 1020.5
22 12.07 Ю 4 н/о н/о +12.1 +5.7 65 +10 +10 1032.5 1021.1
00 13.07 Ю 4 н/о н/о +13.1 +4.8 57 +12 +12 1033.8 1022.4
01 13.07 ЮВ 4 20 км мгла 9/9 <50 м
[Cu med, cong]
+13.7 +4.8 55 +13 +13 1035.2 1023.7 +11.7
03 13.07 Ю 3 н/о н/о +14.4 +5.0 53 +14 +14 1035.9 1024.4
04 13.07 Ю 4 н/о н/о +13.8 +6.2 60 +13 +13 1035.3 1023.8
06 13.07 Ю 4 н/о н/о +13.6 +5.0 56 +12 +12 1034.9 1023.4
07 13.07 Ю 4 20 км слаб. морось 9/9 50 м
[Cu Sc]
+13.0 +6.6 65 +12 +12 1035.0 1023.5
09 13.07 Ю 3 н/о н/о +12.4 +6.7 68 +11 +11 1035.2 1023.7
10 13.07 Ю 3 н/о н/о +12.3 +5.7 64 +11 +11 1035.7 1024.2
12 13.07 Ю 3 н/о н/о +12.3 +5.5 63 +11 +11 1036.3 1024.8
13 13.07 ЮВ 4 н/о н/о +12.1 +5.5 64 +10 +10 1035.9 1024.4 +14.6
15 13.07 ЮВ 3 н/о н/о +12.0 +6.5 69 +10 +10 1035.4 1023.9
18 13.07 В 3 н/о н/о +11.3 +8.0 80 +10 +10 1035.4 1023.9
19 13.07 С 2 н/о в посл. час дождь {туман} н/о +10.2 +8.5 89 +9 +9 1035.4 1023.9
21 13.07 С 2 н/о н/о +8.1 +6.7 91 +6 +6 1036.1 1024.6
22 13.07 С 2 н/о н/о +8.7 +7.6 93 +7 +7 1036.7 1025.2
00 14.07 СЗ 2 н/о н/о +10.3 +9.5 95 +9 +9 1038.0 1026.5
01 14.07 С 2 20 км мгла 5/5 50 м
[Cu med, cong Ci]
+12.6 +11.2 91 +12 +14 1037.9 1026.4 +8.0
03 14.07 Ю 3 н/о н/о +13.3 +9.7 79 +12 +12 1036.7 1025.2
04 14.07 Ю 4 н/о н/о +13.7 +8.3 70 +12 +12 1035.6 1024.1
06 14.07 ЮВ 4 н/о н/о +14.0 +8.4 69 +13 +13 1035.5 1024.0
07 14.07 ЮВ 4 40 км {морось} 8/8 50 м
[Cu med, cong Ci]
+13.0 +7.9 71 +11 +12 1035.6 1024.1
09 14.07 ЮВ 3 н/о н/о +10.9 +8.7 86 +9 +9 1035.8 1024.3
10 14.07 Ю 2 н/о н/о +10.9 +9.0 88 +9 +9 1036.1 1024.6
12 14.07 Ю 4 н/о н/о +11.7 +7.8 77 +10 +10 1036.4 1024.9
13 14.07 ЮВ 4 н/о {туман} н/о +12.0 +6.7 70 +10 +10 1036.1 1024.6 +15.4
15 14.07 ЮВ 3 н/о н/о +12.0 +6.7 70 +11 +11 1035.3 1023.8
16 14.07 Ю 3 н/о н/о +11.7 +6.2 69 +10 +10 1035.0 1023.5
18 14.07 Ю 2 н/о н/о +11.7 +6.8 72 +11 +11 1034.6 1023.1
19 14.07 ЮВ 3 н/о н/о +11.6 +6.3 70 +10 +10 1034.6 1023.1
21 14.07 Ю 3 н/о н/о +11.7 +6.4 70 +10 +10 1034.7 1023.2
22 14.07 Ю 2 н/о н/о +11.4 +5.7 68 +11 +11 1035.1 1023.6
00 15.07 Ю 4 н/о н/о +12.5 +6.1 65 +11 +11 1036.2 1024.7
01 15.07 Ю 3 40 км {морось} 10/10 100 м
[Sc diur, vesp]
+13.1 +6.5 64 +12 +12 1036.6 1025.1 +10.4
03 15.07 ЮВ 3 н/о н/о +14.1 +6.0 58 +13 +13 1035.6 1024.1
04 15.07 ЮВ 3 н/о н/о +14.4 +6.3 58 +14 +14 1034.6 1023.1
06 15.07 ЮВ 3 н/о н/о +13.6 +7.8 68 +13 +13 1033.6 1022.2
07 15.07 ЮВ 4 40 км 4/4 50 м
[Cu med, cong Ci]
+13.5 +8.6 72 +12 +13 1033.2 1021.8
09 15.07 В 3 н/о н/о +10.6 +8.9 89 +9 +9 1033.7 1022.3
10 15.07 В 1 н/о н/о +10.3 +8.4 88 +11 +11 1033.9 1022.5
12 15.07 ЮВ 4 н/о н/о +11.5 +5.6 67 +10 +10 1034.0 1022.6
13 15.07 ЮВ 3 н/о н/о +11.1 +5.4 68 +9 +9 1033.7 1022.3 +15.1
15 15.07 В 3 н/о н/о +10.7 +5.5 70 +9 +9 1033.3 1021.9
16 15.07 ЮВ 3 н/о н/о +10.5 +6.1 74 +9 +9 1033.2 1021.8
18 15.07 СВ 1 н/о н/о +10.4 +6.4 76 +11 +11 1032.4 1021.0
19 15.07 С 1 н/о н/о +10.3 +6.6 78 +11 +11 1032.0 1020.6
21 15.07 СЗ 1 н/о н/о +10.0 +6.7 80 +10 +10 1032.3 1020.9
22 15.07 С 2 н/о н/о +9.9 +6.6 80 +9 +9 1032.6 1021.2
00 16.07 СВ 2 н/о н/о +11.3 +6.6 73 +10 +10 1032.9 1021.5
01 16.07 СВ 2 40 км {морось} 9/9 50 м
[Sc diur, vesp]
+12.1 +6.4 68 +11 +12 1033.2 1021.8 +9.9
03 16.07 Ю 2 н/о н/о +13.1 +6.2 63 +13 +13 1032.3 1020.9
04 16.07 Ю 3 н/о н/о +13.5 +6.4 62 +12 +12 1031.7 1020.3
06 16.07 ЮВ 3 н/о н/о +13.9 +6.0 59 +13 +13 1030.0 1018.6
07 16.07 ЮВ 3 40 км 3/3 600 м
[Cu med, cong]
+13.5 +6.4 62 +12 +13 1030.0 1018.6
09 16.07 ЮВ 3 н/о н/о +10.1 +6.3 77 +8 +8 1029.9 1018.5
10 16.07 ЮВ 3 н/о н/о +10.0 +7.1 82 +8 +8 1030.2 1018.8
12 16.07 В 3 н/о н/о +9.3 +7.1 86 +7 +7 1030.3 1018.9
13 16.07 В 3 н/о н/о +8.4 +6.7 89 +6 +6 1030.3 1018.9 +14.5
15 16.07 С 3 н/о н/о +4.6 +3.6 93 +1 +1 1029.6 1018.2
16 16.07 С 3 н/о н/о +2.8 +1.9 94 -1 -1 1029.0 1017.6
18 16.07 С 3 н/о н/о +2.8 +2.1 95 -2 -2 1028.6 1017.2
19 16.07 С 4 н/о н/о +2.2 +1.5 95 -3 -3 1027.6 1016.2
21 16.07 С 4 н/о н/о +1.7 +1.1 96 -3 -3 1027.5 1016.1
22 16.07 С 4 н/о в посл. час дождь {туман} н/о +1.5 +0.9 96 -4 -4 1028.0 1016.6
00 17.07 С 4 н/о н/о +5.8 +5.2 96 +2 +2 1028.4 1017.0
01 17.07 С 4 40 км 1/1 100 м
[Sc diur, vesp]
+10.2 +9.1 93 +7 +10 1028.7 1017.3 +1.3
03 17.07 СЗ 4 н/о н/о +15.3 +5.2 51 +14 +14 1027.0 1015.6
04 17.07 СЗ 3 н/о н/о +16.9 +3.6 41 +17 +17 1025.6 1014.2

 

Местоположение метеостанции Евкла (Западная Австралия, Австралия): широта -31.68 долгота 128.88 высота над уровнем моря 102 м.

В архиве по умолчанию представлена погода в Евкле за последнюю неделю. Архивные данные за месяц целиком и за предыдущие месяцы, начиная с января 2011 года, Вы можете получить, выбрав интересующий диапазон дат из раскрывающегося списка и нажав кнопку "Ввод!".


*Определитесь, кто Вы:
робот инопланетянин человек

Внимание! Время в таблицах - всемирное. Для получения местного времени необходимо прибавить поправку, которая равна 8 ч.

Смотрите также архив погоды в соседних городах и на ближайших метеорологических станциях:

Погода в Форресте (Западная Австралия, Австралия) (120 км)
Погода в Ред Рокс Пойнт (Западная Австралия, Австралия) (140 км)
Погода в Наллаборе (Южная Австралия, Австралия) (193 км)
Погода в Сидуне (Южная Австралия, Австралия) (458 км)
Погода в Таркуле (Южная Австралия, Австралия) (553 км)
Погода в Миннипа Пирса (Южная Австралия, Австралия) (604 км)
Погода в Кубер-Педи (Южная Австралия, Австралия) (632 км)
Погода в Уудинне (Южная Австралия, Австралия) (636 км)
Погода в Уорбертоне (Западная Австралия, Австралия) (657 км)
Погода в Колте (Южная Австралия, Австралия) (675 км)

Пояснения к столбцам:

Ветер - указаны скорость ветра в м/с - средняя за 10 мин, порывы в срок и между сроками (в фигурных скобках) и направление, откуда дует ветер: С - северный, СВ - северо-восточный, В - восточный, ЮВ - юго-восточный, Ю - южный, ЮЗ - юго-западный, З - западный, СЗ - северо-западный.
Видимость - горизонтальная дальность видимости в метрах или километрах. При видимости от 1 до 10 км при отсутствии осадков обычно наблюдается дымка, при ухудшении видимости до 1 км и менее - туман. В сухую погоду видимость может ухудшаться дымом, пылью или мглою.
Явления - указаны атмосферные явления, наблюдавшиеся в срок или в последний час перед сроком; фигурными скобками обозначены явления, наблюдавшиеся между сроками (за 1-3 часа до срока); квадратными скобками обозначены град или гололедные отложения с указанием их диаметра в мм.
Облачность - указаны через наклонную черту общая и нижняя облачность в баллах и высота нижней границы облаков в метрах; квадратными скобками обозначены формы облаков: Ci - перистые, Cs - перисто-слоистые, Cc - перисто-кучевые, Ac - высококучевые, As - высокослоистые, Sc - слоисто-кучевые, Ns - слоисто-дождевые, Cu - кучевые, Cb - кучево-дождевые. Подробнее классификацию облаков см. в Атласе облаков (PDF).
T - Температура воздуха - температура, измеренная на высоте 2 м над землей.
Td - Температура точки росы - температура, при понижении до которой содержащийся в воздухе водяной пар достигнет насыщения.
f - Относительная влажность воздуха - влажноcть воздуха, измеренная на высоте 2 м над землей.
Te - Эффективная температура - температура, которую ощущает одетый по сезону человек в тени. Характеристика душности погоды. При расчете учитывается влияние влажности воздуха и скорости ветра на теплоощущения человека.
Tes - Эффективная температура на солнце - температура, которую ощущает человек, с поправкой на солнечный нагрев. Характеристика знойности погоды. Зависит от высоты солнца над горизонтом, облачности и скорости ветра. Ночью, в пасмурную погоду, а также при ветре 12 м/с и более поправка равна нулю.
P - Атмосферное давление - приведенное к уровню моря атмосферное давление.
Po - Атмосферное давление - измеренное на уровне метеостанции атмосферное давление.
Tmin - Минимальная температура - минимум температуры воздуха на высоте 2 м над землей.
Tmax - Максимальная температура - максимум температуры воздуха на высоте 2 м над землей.
R - Количество осадков - Количество выпавших осадков за период времени, мм. При наведении курсора мыши на число - период времени, за который выпало указанное количество осадков.
R24 - Количество осадков - Количество выпавших осадков за 24 часа, мм.
S - Снежный покров - Высота снежного покрова, см. При наведении курсора мыши на число - состояние снежного покрова и степень покрытия местности в баллах.